Location: Unspecified
(0.0000°N, 0.0000°E)
Time: 06:29:54
(UTC+00:00)

Vanguard 2 Rocket - Pass Details

Date: 16 October 2022
Orbit: 555 x 3321 km, 32.9° (Epoch: 06 December)

Event Time Altitude Azimuth Distance (km) Brightness Sun altitude
Rises 23:00:11 0° 317° (NW) 6,955 11.4 -75.5°
Enters shadow 23:03:27 - 323° (NW) 6,316 11.1 -76.1°
Reaches altitude 10° 23:07:51 10° 334° (NNW) 5,473 - -76.9°
Maximum altitude 23:16:54 18° 10° (N) 4,101 - -78.4°
Drops below altitude 10° 23:23:43 10° 48° (NE) 3,995 - -79.4°
Sets 23:27:53 0° 68° (ENE) 4,502 - -79.8°
